Flag for U.S.A. Weather past 2 weeks in Lexington-Fayette, Kentucky, U.S.A.

Now
79 °F

Scattered clouds.


Feels Like: 81 °F
Forecast: 63 / 79 °F
Wind: 7 mph from Southwest

Location: Blue Grass Airport

Current Time: Aug 30, 2015 at 7:22:52 PM

Latest Report: Aug 30, 2015 at 6:54 PM


Visibility: 10 mi

Pressure: 30.06 "Hg

Humidity: 67%

Dew point: 67 °F

Location of Lexington-FayetteLocation

Historic Weather in Lexington-Fayette — Graph

°F

Lexington-Fayette temperature yesterday

Maximum temperature yesterday: 86 °F (at 2:54 PM)
Minimum temperature yesterday: 65 °F (at 6:54 AM)
Average temperature yesterday: 75 °F

Past Weeks' High & Low Weather Summary

 TemperatureHumidityPressure
High90 °F (Aug 16, 3:54 PM)97% (Aug 18, 6:54 AM)30.19 "Hg (Aug 18, 6:54 AM)
Low52 °F (Aug 28, 6:54 AM)38% (Aug 21, 4:54 PM)29.79 "Hg (Aug 19, 6:54 PM)
Average72 °F70%30.05 "Hg
* Reported Aug 15 5:54 PM — Aug 30 5:54 PM, Lexington-Fayette, Weather by CustomWeather, © 2015

Note: Actual official high and low records may vary slightly from our data, if they occured in-between our weather recording intervals... More about our weather records

Advertising

Lexington-Fayette weather history for previous 24 hours

 ConditionsComfort  
Time TempWeatherWind HumidityBarometerVisibility
5:54 PM
Sun, Aug 30
80 °FSunny.9 mph64%30.05 "Hg10 mi
4:54 PM83 °FSunny.10 mph57%30.05 "Hg10 mi
3:54 PM84 °FBroken clouds.9 mph55%30.07 "Hg10 mi
2:54 PM85 °FPassing clouds.12 mph53%30.08 "Hg10 mi
1:54 PM84 °FPartly sunny.13 mph57%30.10 "Hg10 mi
12:54 PM83 °FScattered clouds.7 mph61%30.12 "Hg10 mi
11:54 AM80 °FScattered clouds.9 mph64%30.13 "Hg10 mi
10:54 AM76 °FSunny.12 mph74%30.14 "Hg10 mi
9:54 AM75 °FSunny.9 mph76%30.12 "Hg10 mi
8:54 AM71 °FPassing clouds.8 mph87%30.12 "Hg10 mi
7:54 AM68 °FClear.6 mph90%30.11 "Hg10 mi
6:54 AM67 °FClear.8 mph90%30.10 "Hg10 mi
5:54 AM68 °FClear.5 mph87%30.09 "Hg10 mi
4:54 AM68 °FClear.6 mph90%30.08 "Hg10 mi
3:54 AM68 °FClear.5 mph90%30.08 "Hg10 mi
2:54 AM70 °FClear.8 mph87%30.07 "Hg10 mi
1:54 AM71 °FClear.7 mph84%30.07 "Hg10 mi
12:54 AM71 °FClear.5 mph87%30.07 "Hg10 mi
11:54 PM
Sat, Aug 29
72 °FClear.5 mph84%30.08 "Hg10 mi
10:54 PM73 °FClear.5 mph81%30.09 "Hg10 mi
9:54 PM76 °FClear.3 mph74%30.07 "Hg10 mi
8:54 PM77 °FSunny.5 mph74%30.06 "Hg10 mi
7:54 PM78 °FBroken clouds.5 mph74%30.05 "Hg10 mi
Weather by CustomWeather, © 2015

See weather overviewHow to use our weather pages